Regional Weather Roundup
Issued by NWS

Home | Current Version | Previous Version | Graphics & Text | Print | Product List | Glossary Off
Versions: 1 2 3 4 5 6 7 8 9 10 11 12 13 14 15 16 17 18 19 20 21 22 23 24 25 26 27 28 29 30 31 32 33 34 35 36 37 38 39 40 41 42 43 44 45 46 47 48 49 50

000
ASUS43 KMKX 220021
RWRWI

WISCONSIN REGIONAL WEATHER ROUNDUP
NATIONAL WEATHER SERVICE MILWAUKEE/SULLIVAN WI
700 PM CDT MON JUL 21 2014

NOTE: "FAIR" INDICATES FEW OR NO CLOUDS BELOW 12,000 FEET WITH NO
SIGNIFICANT WEATHER AND/OR OBSTRUCTIONS TO VISIBILITY.

WIZ001-002-006>008-014>016-023>028-220100-
NORTHWEST WISCONSIN

CITY           SKY/WX    TMP DP  RH WIND       PRES   REMARKS
SUPERIOR ARPT  PTSUNNY   86  75  69 S10       29.83S HX  95
6HR MIN TEMP:  86; 6HR MAX TEMP:  91;

ASHLAND        MOSUNNY   86  73  65 S7        29.88F HX  93
6HR MIN TEMP:  85; 6HR MAX TEMP:  89;

HAYWARD        CLOUDY    84  74  71 S12       29.91F HX  91
6HR MIN TEMP:  84; 6HR MAX TEMP:  89;

SIREN          CLOUDY    85  73  66 S8        29.89S HX  92
6HR MIN TEMP:  85; 6HR MAX TEMP:  90;

RICE LAKE      MOSUNNY   85  71  63 SE13G18   29.92S HX  90
6HR MIN TEMP:  85; 6HR MAX TEMP:  88;

LADYSMITH      MOSUNNY   85  72  65 SE9       29.95F HX  90
6HR MIN TEMP:  84; 6HR MAX TEMP:  87;

EAU CLAIRE     SUNNY     86  72  62 S13       29.91S HX  92
6HR MIN TEMP:  86; 6HR MAX TEMP:  90;

MENOMONIE      PTCLDY    85  73  65 SE10      29.91S HX  91
6HR MIN TEMP:  84; 6HR MAX TEMP:  89;

NEW RICHMOND   PTSUNNY   84  73  67 SE7       29.89F HX  90
6HR MIN TEMP:  84; 6HR MAX TEMP:  87;

OSCEOLA        MOSUNNY   85  74  70 SE12      29.90F HX  92
6HR MIN TEMP:  85; 6HR MAX TEMP:  88;

$$

WIZ003>005-009-010-017-018-220100-
NORTH CENTRAL WISCONSIN

CITY           SKY/WX    TMP DP  RH WIND       PRES   REMARKS
WOODRUFF       MOSUNNY   82  72  69 S12       29.98F HX  87
6HR MIN TEMP:  82; 6HR MAX TEMP:  90;

RHINELANDER    PTSUNNY   81  70  69 S8        30.01R HX  84
6HR MIN TEMP:  80; 6HR MAX TEMP:  84;

EAGLE RIVER    CLOUDY    80  68  66 S5        29.99F HX  82
6HR MIN TEMP:  80; 6HR MAX TEMP:  83;

LAND O LAKES   MOSUNNY   83  69  62 S6        30.00S HX  86
6HR MIN TEMP:  82; 6HR MAX TEMP:  86;

PHILLIPS       MOSUNNY   82  73  74 S8G16     29.96S HX  86
6HR MIN TEMP:  82; 6HR MAX TEMP:  85;

TOMAHAWK       MOSUNNY   81  70  71 CALM      30.00S HX  84
6HR MIN TEMP:  81; 6HR MAX TEMP:  84;

MEDFORD        CLOUDY    80  72  76 S8        29.99S HX  83
6HR MIN TEMP:  79; 6HR MAX TEMP:  84;

MERRILL        CLOUDY    82  72  71 S6        29.99S HX  86
6HR MIN TEMP:  80; 6HR MAX TEMP:  85;

$$

WIZ029-030-035-036-043>047-220100-
CENTRAL WISCONSIN

CITY           SKY/WX    TMP DP  RH WIND       PRES   REMARKS
WAUSAU         CLOUDY    82  70  66 S8        29.97F HX  86
6HR MIN TEMP:  79; 6HR MAX TEMP:  86;

MOSINEE        NOT AVBL
MARSHFIELD     CLOUDY    82  71  69 S10       29.98S HX  86
6HR MIN TEMP:  82; 6HR MAX TEMP:  86;

STEVENS POINT  CLOUDY    82  67  60 S10G17    29.99S HX  84
6HR MIN TEMP:  82; 6HR MAX TEMP:  85;

WAUPACA        SUNNY     87  66  50 S7        29.99S HX  89
6HR MIN TEMP:  86; 6HR MAX TEMP:  91;

WAUTOMA        SUNNY     86  68  54 S6        30.00S HX  89
6HR MIN TEMP:  83; 6HR MAX TEMP:  89;

WISC RAPIDS    MOSUNNY   85  68  56 SW13      29.99S HX  88
6HR MIN TEMP:  84; 6HR MAX TEMP:  89;

CAMP DOUGLAS   MOSUNNY   84  70  61 S9        29.97F HX  88
$$

WIZ011>013-019>022-031-037>040-048>050-220100-
NORTHEAST WISCONSIN

CITY           SKY/WX    TMP DP  RH WIND       PRES   REMARKS
ANTIGO         CLOUDY    78  71  80 S6        30.02S
6HR MIN TEMP:  76; 6HR MAX TEMP:  82;

STURGEON BAY   MOSUNNY   72  61  68 S14G20    30.02S
6HR MIN TEMP:  73; 6HR MAX TEMP:  84;

GREEN BAY      SUNNY     84  66  54 S9G18     30.00S HX  86
6HR MIN TEMP:  82; 6HR MAX TEMP:  86;

MANITOWOC      SUNNY     74  63  68 S12       30.03S
6HR MIN TEMP:  74; 6HR MAX TEMP:  79;

APPLETON       NOT AVBL
CLINTONVILLE   SUNNY     82  64  54 S12       29.99S HX  84
OSHKOSH        SUNNY     83  69  62 S9        30.00F HX  86
6HR MIN TEMP:  83; 6HR MAX TEMP:  86;

$$

WIZ032>034-041-042-053>061-220100-
SOUTHWEST WISCONSIN

CITY           SKY/WX    TMP DP  RH WIND       PRES   REMARKS
LA CROSSE      SUNNY     86  69  56 SE12      29.91F HX  90
6HR MIN TEMP:  86; 6HR MAX TEMP:  90;

SPARTA         SUNNY     84  66  54 S9G17     29.96S HX  86
6HR MIN TEMP:  84; 6HR MAX TEMP:  88;

VIROQUA        FAIR      82  67  59 S13       29.98S HX  84
6HR MIN TEMP:  82; 6HR MAX TEMP:  85;

BOSCOBEL       SUNNY     86  68  54 MISG      29.97S HX  89
6HR MIN TEMP:  86; 6HR MAX TEMP:  90;

PRAIRIE DU CHI SUNNY     84  66  54 SE12      29.95S HX  86
6HR MIN TEMP:  84; 6HR MAX TEMP:  87;

PLATTEVILLE    FAIR      82  69  63 SE10      30.01S HX  86
6HR MIN TEMP:  82; 6HR MAX TEMP:  85;

$$

WIZ056-057-062-063-064-067-068-220100-
SOUTH CENTRAL WISCONSIN

CITY           SKY/WX    TMP DP  RH WIND       PRES   REMARKS
BARABOO/DELLS  SUNNY     84  64  52 S10       30.00S HX  85
6HR MIN TEMP:  84; 6HR MAX TEMP:  89;

LONE ROCK      MOSUNNY   88  69  53 S9        29.98F HX  92
6HR MIN TEMP:  87; 6HR MAX TEMP:  91;

WATERTOWN      SUNNY     81  69  66 S6        30.02S HX  85
6HR MIN TEMP:  81; 6HR MAX TEMP:  84;

MADISON        MOSUNNY   84  67  56 S13       30.01S HX  86
6HR MIN TEMP:  84; 6HR MAX TEMP:  87;

MIDDLETON      FAIR      85  65  52 S12G18    30.02S HX  86
6HR MIN TEMP:  85; 6HR MAX TEMP:  88;

MONROE         SUNNY     81  68  65 S10G16    30.03S HX  83
JANESVILLE     MOSUNNY   84  64  51 S9        30.03S HX  86
$$

WIZ051-052-058>065-066-070>072-220100-
SOUTHEAST WISCONSIN

CITY           SKY/WX    TMP DP  RH WIND       PRES   REMARKS
MILWAUKEE      MOSUNNY   79  62  56 S14       30.04S HX  80
6HR MIN TEMP:  78; 6HR MAX TEMP:  84;

WAUKESHA       MOSUNNY   79  64  61 SW8       30.06R HX  81
MILWAUKEE/TIMM MOSUNNY   82  63  51 S9        30.04S HX  83
RACINE         SUNNY     77  63  61 S14G21    30.06F
6HR MIN TEMP:  77; 6HR MAX TEMP:  81;

BURLINGTON     SUNNY     78  65  65 SW8       30.05R HX  80
6HR MIN TEMP:  78; 6HR MAX TEMP:  82;

KENOSHA        SUNNY     79  65  62 SE9       30.05S HX  81
6HR MIN TEMP:  79; 6HR MAX TEMP:  85; 6HR PCP: TRACE;

FOND DU LAC    SUNNY     83  67  58 S9        30.01S HX  85
6HR MIN TEMP:  82; 6HR MAX TEMP:  86;

SHEBOYGAN      SUNNY     76  62  62 S9        30.03F
6HR MIN TEMP:  76; 6HR MAX TEMP:  84;

WEST BEND      SUNNY     81  64  57 S6        30.03S HX  82
JUNEAU         SUNNY     82  51  34 S12       30.03F HX  80
6HR MIN TEMP:  81; 6HR MAX TEMP:  84;

$$

LSZ147-162-220100-
LAKE SUPERIOR

STATION/POSITION TIME  TEMP    WIND        PRES    WAVE
                       AIR SEA DIR/SP/G            HT/PER
                 (UTC) (F)     (DEG/KT/KT) (MB)    (FT/S)
W MID LAKE BUOY  2350   53 44  140/  6/  8 1011.6F   1
PORT WING        2300   89     180/  8/ 14 1010.8F
SAXON HARBOR     2300          180/  2/  5 1012.2S
$$

LMZ867-665-643>646-220100-
LAKE MICHIGAN

STATION/POSITION TIME  TEMP    WIND        PRES    WAVE
                       AIR SEA DIR/SP/G            HT/PER
                 (UTC) (F)     (DEG/KT/KT) (MB)    (FT/S)
N MID LAKE BUOY  2350   64 59  210/ 12/ 16 1015.8F   3/ 5
NORTHPORT PIER   2300   73     170/  6/ 15 1015.9F
KEWAUNEE LAKESHO 0000   61     180/ 13/ 16 1017.5F
SHEBOYGAN LAKESH 0000   71     180/ 16/ 16 1016.9F
PORT WASHINGTON  2300   69     200/  6/ 10 1017.6
ATWATER BUOY     0000   61     190/  8     1018.3R
MILWAUKEE LAKESH 0000   67     150/ 15/ 15   N/A
S MID LAKE BUOY  2350   73 70  160/  8/  8 1017.9F   0
KENOSHA   LAKESH 0000   74     170/ 11/ 12   N/A
$$

TC  - TEMPERATURE IN CELSIUS
VSB - VISIBILITY IN STATUTE MILES
WCI - WIND CHILL INDEX
HX  - HEAT INDEX



USA.gov is the U.S. government's official web portal to all federal, state and local government web resources and services.